User: anonymous   Login
Location: Laguna de la Cañada del Gallo
(40.3974°N, 5.2096°W)
Time: 03:52:51
(UTC+00:00)
Language:

Cosmos 1605 Rocket - Orbit

View from above orbital plane
View from above orbital plane
View from above satellite
View from above satellite

Ground track
Ground track

The orbit data is extracted from the following two-line orbital elements,

1 15360U 84109B   24174.46020007  .00000101  00000-0  85703-4 0  9993
2 15360  82.9399 304.3852 0042698  85.8906 274.7130 13.76928190993895
Epoch (UTC): 22 June 2024 11:02:41
Eccentricity: 0.0042698
inclination: 82.9399°
perigee height: 943 km
apogee height: 1006 km
right ascension of ascending node: 304.3852°
argument of perigee: 85.8906°
revolutions per day: 13.76928190
mean anomaly at epoch: 274.7130°
orbit number at epoch: 99389

The dashed part of the orbit path shows where the satellite is in the earth's shadow,  

DLR